This demonstration page uses our WeatherBlox Daily Observations layout. Learn more.

Left ArrowRight Arrow

39.51506, -84.39828

Hourly Observations for February 10, 2019

Temp ( °F °C ) Dew Point ( °F °C ) Humidity (%) Winds ( mph kmh ) Pressure ( in mb ) Visibility ( mi km ) Precip ( " mm )
12:15 am 00:15 Clear 20 -6.4 15 -9.6 78 78 ENE 5 7 30.70 1040 10 16 0.00 0.00
12:35 am 00:35 Clear 21 -6.3 15 -9.4 79 79 NE 5 7 30.70 1040 10 16 0.00 0.00
12:55 am 00:55 Clear 21 -6.2 15 -9.5 78 78 ENE 3 6 30.69 1039 10 16 0.00 0.00
1:15 am 01:15 Clear 20 -6.6 15 -9.7 79 79 Calm 30.69 1039 10 16 0.00 0.00
1:35 am 01:35 Clear 20 -6.5 14 -9.8 78 78 Calm 30.69 1039 10 16 0.00 0.00
1:55 am 01:55 Clear 20 -6.8 16 -9.1 84 84 Calm 30.70 1039 10 16 0.00 0.00
2:15 am 02:15 Clear 18 -7.8 15 -9.4 88 88 Calm 30.70 1040 10 16 0.00 0.00
2:35 am 02:35 Clear 17 -8.5 14 -9.8 90 90 N 3 6 30.69 1039 10 16 0.00 0.00
2:55 am 02:55 Clear 17 -8.3 14 -9.9 88 88 Calm 30.67 1039 10 16 0.00 0.00
3:15 am 03:15 Clear 18 -7.6 15 -9.6 86 86 Calm 30.66 1038 10 16 0.00 0.00
3:35 am 03:35 Clear 17 -8.5 14 -10 89 89 Calm 30.65 1038 10 16 0.00 0.00
3:55 am 03:55 Clear 17 -8.3 13 -10.3 86 86 Calm 30.64 1038 10 16 0.00 0.00
4:15 am 04:15 Clear 18 -7.9 14 -10.1 84 84 Calm 30.64 1038 10 16 0.00 0.00
4:35 am 04:35 Clear 17 -8.5 14 -9.8 90 90 Calm 30.63 1037 10 16 0.00 0.00
4:55 am 04:55 Clear 16 -8.8 13 -10.4 88 88 N 3 6 30.62 1037 10 16 0.00 0.00
5:15 am 05:15 Clear 17 -8.1 14 -10 86 86 Calm 30.61 1037 10 16 0.00 0.00
5:35 am 05:35 Clear 17 -8.2 14 -10.1 86 86 Calm 30.61 1037 10 16 0.00 0.00
5:55 am 05:55 Clear 18 -7.6 14 -9.9 84 84 Calm 30.60 1036 10 16 0.00 0.00
6:15 am 06:15 Clear 19 -7.3 14 -9.8 83 83 N 3 6 30.60 1036 10 16 0.00 0.00
6:35 am 06:35 Clear 20 -6.7 16 -9.1 83 83 N 3 6 30.58 1036 10 16 0.00 0.00
6:55 am 06:55 Clear 20 -6.4 16 -9.1 81 81 Calm 30.57 1035 10 16 0.00 0.00
7:15 am 07:15 Clear 22 -5.8 16 -8.8 80 80 Calm 30.57 1035 10 16 0.00 0.00
7:35 am 07:35 Partly Cloudy 22 -5.5 17 -8.5 80 80 Calm 30.56 1035 10 16 0.00 0.00
7:55 am 07:55 Partly Cloudy 23 -5 16 -8.8 75 75 NE 5 7 30.54 1034 10 16 0.00 0.00
8:15 am 08:15 Sunny 24 -4.7 17 -8.6 74 74 NE 3 6 30.54 1034 10 16 0.00 0.00
8:35 am 08:35 Cloudy 24 -4.5 16 -9 71 71 Calm 30.56 1035 10 16 0.00 0.00
8:55 am 08:55 Cloudy 25 -4.1 16 -8.8 70 70 Calm 30.57 1035 10 16 0.00 0.00
9:15 am 09:15 Cloudy 26 -3.6 16 -9 67 67 ESE 3 6 30.57 1035 10 16 0.00 0.00
9:35 am 09:35 Cloudy 26 -3.4 16 -8.8 67 67 ESE 7 11 30.56 1035 10 16 0.00 0.00
9:55 am 09:55 Cloudy 26 -3.2 16 -8.7 66 66 ESE 5 7 30.54 1034 10 16 0.00 0.00
10:15 am 10:15 Cloudy 27 -3 17 -8.6 66 66 Calm 30.54 1034 10 16 0.00 0.00
10:35 am 10:35 Cloudy 28 -2.5 17 -8.3 65 65 SE 3 6 30.53 1034 10 16 0.00 0.00
10:55 am 10:55 Cloudy 28 -2 18 -7.8 65 65 SE 3 6 30.53 1034 10 16 0.00 0.00
11:15 am 11:15 Cloudy with Light Snow 29 -1.8 18 -7.7 64 64 SSE 5 7 30.52 1034 10 16 0.00 0.00
11:35 am 11:35 Cloudy with Light Snow 29 -1.8 20 -6.5 71 71 SSE 6 9 30.51 1033 4 6 0.00 0.00
11:55 am 11:55 Cloudy with Light Snow 29 -1.8 22 -5.5 76 76 ESE 3 6 30.48 1032 7 11 0.00 0.00
12:15 pm 12:15 Cloudy with Light Snow 29 -1.9 24 -4.6 82 82 ESE 3 6 30.47 1032 3 4 0.00 0.00
12:35 pm 12:35 Cloudy with Light Snow 29 -1.8 25 -3.9 86 86 SE 5 7 30.45 1031 1 2 0.00 0.00
12:55 pm 12:55 Cloudy with Light Snow 29 -1.8 26 -3.3 90 90 Calm 30.45 1031 1 1 0.00 0.00
1:15 pm 13:15 Cloudy with Light Snow 29 -1.6 27 -2.8 92 92 Calm 30.43 1030 1 2 0.00 0.00
1:35 pm 13:35 Cloudy with Light Snow 29 -1.4 27 -2.6 92 92 Calm 30.42 1030 1 2 0.01 0.25
1:55 pm 13:55 Cloudy with Light Snow 29 -1.5 27 -2.6 92 92 Calm 30.41 1030 1 2 0.02 0.51
2:15 pm 14:15 Cloudy with Light Snow 29 -1.4 28 -2.3 94 94 Calm 30.40 1029 2 2 0.00 0.00
2:35 pm 14:35 Cloudy with Light Snow 30 -0.9 29 -1.9 93 93 Calm 30.38 1029 1 2 0.01 0.25
2:55 pm 14:55 Cloudy with Light Snow 31 -0.8 29 -1.6 94 94 Calm 30.37 1028 1 2 0.02 0.51
3:15 pm 15:15 Cloudy with Light Rain 31 -0.4 30 -1.1 95 95 NE 5 7 30.35 1028 3 5 0.00 0.00
3:35 pm 15:35 Cloudy with Light Rain 32 -0.2 30 -0.9 95 95 Calm 30.34 1027 5 8 0.00 0.00
3:55 pm 15:55 Cloudy 33 0.3 31 -0.6 94 94 Calm 30.33 1027 7 11 0.00 0.00
4:15 pm 16:15 Cloudy with Light Rain 32 0.1 31 -0.7 94 94 Calm 30.33 1027 7 11 0.00 0.00
4:35 pm 16:35 Cloudy with Light Rain 33 0.3 31 -0.3 96 96 Calm 30.32 1027 3 4 0.00 0.00
4:55 pm 16:55 Cloudy with Light Rain 33 0.5 32 0 96 96 Calm 30.31 1027 3 5 0.01 0.25
5:15 pm 17:15 Cloudy with Drizzle 33 0.8 33 0.4 97 97 Calm 30.30 1026 3 4 0.00 0.00
5:35 pm 17:35 Cloudy with Light Rain 34 0.9 33 0.5 97 97 S 5 7 30.31 1027 4 6 0.00 0.00
5:55 pm 17:55 Cloudy with Light Rain 34 0.9 33 0.4 97 97 S 3 6 30.30 1026 3 4 0.00 0.00
6:15 pm 18:15 Cloudy with Drizzle 33 0.8 33 0.4 97 97 Calm 30.29 1026 2 2 0.00 0.00
6:35 pm 18:35 Cloudy with Mist and Fog 34 1 33 0.6 97 97 S 3 6 30.27 1025 4 6 0.00 0.00
7:15 pm 19:15 Cloudy with Mist and Fog 34 1.2 33 0.5 95 95 SSW 5 7 30.28 1025 7 11 0.00 0.00
7:35 pm 19:35 Cloudy with Mist and Fog 34 1.1 33 0.5 96 96 SSW 3 6 30.28 1025 5 8 0.00 0.00
7:55 pm 19:55 Cloudy with Mist and Fog 34 1 33 0.5 97 97 SSW 3 6 30.28 1025 5 8 0.00 0.00
8:15 pm 20:15 Cloudy with Light Rain 34 1.1 33 0.4 95 95 SSW 3 6 30.28 1025 5 8 0.00 0.00
8:35 pm 20:35 Cloudy with Drizzle 34 1 33 0.4 96 96 Calm 30.27 1025 3 5 0.00 0.00
8:55 pm 20:55 Cloudy with Drizzle 34 0.9 33 0.4 97 97 Calm 30.26 1025 2 3 0.00 0.00
9:15 pm 21:15 Cloudy with Drizzle 34 0.9 33 0.5 97 97 SSW 3 6 30.26 1025 2 3 0.00 0.00
9:35 pm 21:35 Cloudy with Drizzle 34 0.9 33 0.6 98 98 Calm 30.26 1025 1 2 0.00 0.00
9:55 pm 21:55 Cloudy with Drizzle 34 0.9 33 0.6 98 98 Calm 30.26 1025 1 2 0.00 0.00
10:15 pm 22:15 Cloudy with Drizzle 34 0.9 33 0.7 99 99 Calm 30.26 1025 1 2 0.00 0.00
10:35 pm 22:35 Cloudy with Drizzle 34 1 33 0.8 99 99 Calm 30.25 1024 1 2 0.00 0.00
10:55 pm 22:55 Cloudy with Mist and Fog 34 1.1 34 0.9 99 99 Calm 30.25 1024 1 2 0.00 0.00
11:15 pm 23:15 Cloudy with Mist and Fog 34 1.2 34 1.1 99 99 Calm 30.23 1024 3 4 0.00 0.00
11:35 pm 23:35 Cloudy with Drizzle 34 1.1 34 0.9 99 99 Calm 30.24 1024 3 4 0.00 0.00
11:55 pm 23:55 Cloudy with Drizzle 34 1 33 0.8 99 99 Calm 30.23 1024 2 2 0.00 0.00

Powered by AerisWeather